TimeEDT,TemperatureF,Dew PointF,Humidity,Sea Level PressureIn,VisibilityMPH,Wind Direction,Wind SpeedMPH,Gust SpeedMPH,PrecipitationIn,Events,Conditions,WindDirDegrees,DateUTC
12:56 AM,75.9,71.1,85,29.83,10.0,Calm,Calm,-,N/A,,Clear,0,2013-07-11 04:56:00
1:56 AM,75.9,71.1,85,29.84,10.0,West,4.6,-,N/A,,Partly Cloudy,260,2013-07-11 05:56:00
2:56 AM,73.9,70.0,87,29.85,10.0,WSW,3.5,-,N/A,,Scattered Clouds,240,2013-07-11 06:56:00
3:56 AM,73.9,68.0,82,29.85,10.0,West,4.6,-,N/A,,Scattered Clouds,270,2013-07-11 07:56:00
4:56 AM,73.0,66.9,81,29.86,10.0,West,4.6,-,N/A,,Clear,280,2013-07-11 08:56:00
5:56 AM,72.0,66.9,84,29.87,10.0,WSW,3.5,-,N/A,,Clear,240,2013-07-11 09:56:00
6:56 AM,73.0,66.0,79,29.88,10.0,WNW,6.9,-,N/A,,Partly Cloudy,300,2013-07-11 10:56:00
7:56 AM,73.0,64.0,73,29.91,10.0,WNW,8.1,16.1,N/A,,Partly Cloudy,300,2013-07-11 11:56:00
8:38 AM,73.4,64.4,73,29.93,10.0,NW,10.4,-,N/A,,Mostly Cloudy,310,2013-07-11 12:38:00
8:56 AM,73.9,63.0,68,29.93,10.0,NNW,13.8,19.6,N/A,,Mostly Cloudy,340,2013-07-11 12:56:00
9:30 AM,75.2,62.6,65,29.94,10.0,NNW,8.1,-,N/A,,Scattered Clouds,340,2013-07-11 13:30:00
9:56 AM,77.0,63.0,62,29.93,10.0,Variable,5.8,-,N/A,,Partly Cloudy,0,2013-07-11 13:56:00
10:56 AM,79.0,64.0,60,29.92,10.0,NW,8.1,-,N/A,,Mostly Cloudy,320,2013-07-11 14:56:00
11:56 AM,81.0,64.9,58,29.92,10.0,NNW,8.1,-,N/A,,Scattered Clouds,340,2013-07-11 15:56:00
12:56 PM,82.0,64.9,56,29.92,10.0,NW,5.8,-,N/A,,Clear,320,2013-07-11 16:56:00
1:56 PM,84.0,63.0,49,29.91,10.0,NNW,6.9,-,N/A,,Scattered Clouds,330,2013-07-11 17:56:00
2:56 PM,82.9,63.0,51,29.90,10.0,North,8.1,-,N/A,,Mostly Cloudy,350,2013-07-11 18:56:00
3:56 PM,84.9,63.0,48,29.89,10.0,NNW,10.4,-,N/A,,Mostly Cloudy,340,2013-07-11 19:56:00
4:56 PM,84.0,61.0,46,29.89,10.0,NNW,8.1,-,N/A,,Partly Cloudy,340,2013-07-11 20:56:00
5:56 PM,84.0,59.0,43,29.89,10.0,NW,9.2,-,N/A,,Partly Cloudy,320,2013-07-11 21:56:00
6:56 PM,82.9,57.9,42,29.91,10.0,NNW,6.9,-,N/A,,Clear,330,2013-07-11 22:56:00
7:56 PM,80.1,59.0,48,29.92,10.0,NW,6.9,-,N/A,,Clear,310,2013-07-11 23:56:00
8:56 PM,78.1,60.1,54,29.92,10.0,Calm,Calm,-,N/A,,Clear,0,2013-07-12 00:56:00
9:56 PM,72.0,63.0,73,29.93,10.0,SW,3.5,-,N/A,,Clear,230,2013-07-12 01:56:00
10:56 PM,72.0,63.0,73,29.94,10.0,Calm,Calm,-,N/A,,Clear,0,2013-07-12 02:56:00
11:56 PM,75.0,60.1,60,29.93,10.0,ENE,4.6,-,N/A,,Clear,70,2013-07-12 03:56:00